Lastgang VZR TXL;;;
;;;
;DE00765412521DAV00000000211420VZR;DE00765412521DAV00000000213220VZR;
;Verlustzeitreihe VZR;Verlustzeitreihe VZR;
01.01.2020 00:15;48;137;W
01.01.2020 00:30;47;135;W
01.01.2020 00:45;47;135;W
01.01.2020 01:00;47;134;W
01.01.2020 01:15;46;135;W
01.01.2020 01:30;45;137;W
01.01.2020 01:45;45;136;W
01.01.2020 02:00;45;137;W
01.01.2020 02:15;46;137;W
01.01.2020 02:30;46;135;W
01.01.2020 02:45;46;138;W
01.01.2020 03:00;46;138;W
01.01.2020 03:15;47;137;W
01.01.2020 03:30;48;140;W
01.01.2020 03:45;50;139;W
01.01.2020 04:00;50;138;W
01.01.2020 04:15;53;140;W
01.01.2020 04:30;55;139;W
01.01.2020 04:45;56;140;W
01.01.2020 05:00;57;140;W
01.01.2020 05:15;58;144;W
01.01.2020 05:30;58;145;W
01.01.2020 05:45;60;148;W
01.01.2020 06:00;62;148;W
01.01.2020 06:15;63;148;W
01.01.2020 06:30;64;147;W
01.01.2020 06:45;63;148;W
01.01.2020 07:00;62;148;W
01.01.2020 07:15;62;149;W
01.01.2020 07:30;62;149;W
01.01.2020 07:45;63;151;W
01.01.2020 08:00;64;151;W
01.01.2020 08:15;65;148;W
01.01.2020 08:30;64;144;W
01.01.2020 08:45;58;140;W
01.01.2020 09:00;59;141;W
01.01.2020 09:15;57;140;W
01.01.2020 09:30;58;139;W
01.01.2020 09:45;59;139;W
01.01.2020 10:00;59;138;W
01.01.2020 10:15;59;140;W
01.01.2020 10:30;59;138;W
01.01.2020 10:45;59;138;W
01.01.2020 11:00;57;135;W
01.01.2020 11:15;54;135;W
01.01.2020 11:30;55;136;W
01.01.2020 11:45;55;134;W
01.01.2020 12:00;55;134;W
01.01.2020 12:15;55;136;W
01.01.2020 12:30;57;136;W
01.01.2020 12:45;56;136;W
01.01.2020 13:00;54;140;W
01.01.2020 13:15;53;137;W
01.01.2020 13:30;52;135;W
01.01.2020 13:45;51;134;W
01.01.2020 14:00;53;134;W
01.01.2020 14:15;53;136;W
01.01.2020 14:30;55;134;W
01.01.2020 14:45;53;134;W
01.01.2020 15:00;53;134;W
01.01.2020 15:15;52;133;W
01.01.2020 15:30;52;132;W
01.01.2020 15:45;53;135;W
01.01.2020 16:00;56;134;W
01.01.2020 16:15;59;137;W
01.01.2020 16:30;65;145;W
01.01.2020 16:45;65;149;W
01.01.2020 17:00;65;148;W
01.01.2020 17:15;66;146;W
01.01.2020 17:30;66;149;W
01.01.2020 17:45;66;150;W
01.01.2020 18:00;66;148;W
01.01.2020 18:15;66;149;W
01.01.2020 18:30;67;149;W
01.01.2020 18:45;65;149;W
01.01.2020 19:00;65;150;W
01.01.2020 19:15;66;150;W
01.01.2020 19:30;66;150;W
01.01.2020 19:45;66;149;W
01.01.2020 20:00;65;150;W
01.01.2020 20:15;63;151;W
01.01.2020 20:30;63;150;W
01.01.2020 20:45;62;151;W
01.01.2020 21:00;62;149;W
01.01.2020 21:15;60;149;W
01.01.2020 21:30;60;148;W
01.01.2020 21:45;60;148;W
01.01.2020 22:00;60;149;W
01.01.2020 22:15;60;149;W
01.01.2020 22:30;59;146;W
01.01.2020 22:45;60;147;W
01.01.2020 23:00;60;149;W
01.01.2020 23:15;59;148;W
01.01.2020 23:30;59;149;W
01.01.2020 23:45;56;149;W
02.01.2020 00:00;53;147;W
02.01.2020 00:15;52;144;W
02.01.2020 00:30;51;143;W
02.01.2020 00:45;51;141;W
02.01.2020 01:00;50;144;W
02.01.2020 01:15;50;143;W
02.01.2020 01:30;49;144;W
02.01.2020 01:45;47;144;W
02.01.2020 02:00;46;143;W
02.01.2020 02:15;47;143;W
02.01.2020 02:30;47;141;W
02.01.2020 02:45;48;144;W
02.01.2020 03:00;49;143;W
02.01.2020 03:15;49;144;W
02.01.2020 03:30;49;144;W
02.01.2020 03:45;50;144;W
02.01.2020 04:00;51;143;W
02.01.2020 04:15;55;148;W
02.01.2020 04:30;58;146;W
02.01.2020 04:45;57;148;W
02.01.2020 05:00;57;148;W
02.01.2020 05:15;61;151;W
02.01.2020 05:30;63;156;W
02.01.2020 05:45;65;157;W
02.01.2020 06:00;68;161;W
02.01.2020 06:15;70;163;W
02.01.2020 06:30;69;166;W
02.01.2020 06:45;70;164;W
02.01.2020 07:00;68;164;E
02.01.2020 07:15;68;166;W
02.01.2020 07:30;69;166;W
02.01.2020 07:45;68;168;W
02.01.2020 08:00;68;169;W
02.01.2020 08:15;68;167;W
02.01.2020 08:30;64;159;W
02.01.2020 08:45;65;155;W
02.01.2020 09:00;65;156;W
02.01.2020 09:15;63;157;W
02.01.2020 09:30;63;148;W
02.01.2020 09:45;64;145;W
02.01.2020 10:00;63;145;W
02.01.2020 10:15;64;144;W
02.01.2020 10:30;64;146;W
02.01.2020 10:45;64;143;W
02.01.2020 11:00;63;141;W
02.01.2020 11:15;60;140;W
02.01.2020 11:30;59;148;W
02.01.2020 11:45;59;150;W
02.01.2020 12:00;59;150;W
02.01.2020 12:15;57;150;W
02.01.2020 12:30;58;147;W
02.01.2020 12:45;60;148;W
02.01.2020 13:00;59;147;W
02.01.2020 13:15;57;145;W
02.01.2020 13:30;57;145;W
02.01.2020 13:45;59;147;W
02.01.2020 14:00;57;144;W
02.01.2020 14:15;58;144;W
02.01.2020 14:30;58;144;W
02.01.2020 14:45;56;143;W
02.01.2020 15:00;57;143;W
02.01.2020 15:15;56;143;W
02.01.2020 15:30;56;142;W
02.01.2020 15:45;59;142;W
02.01.2020 16:00;61;144;W
02.01.2020 16:15;62;146;W
02.01.2020 16:30;68;154;W
02.01.2020 16:45;69;157;W
02.01.2020 17:00;68;156;W
02.01.2020 17:15;68;156;W
02.01.2020 17:30;68;156;W
02.01.2020 17:45;68;155;W
02.01.2020 18:00;68;157;W
02.01.2020 18:15;67;156;W
02.01.2020 18:30;68;158;W
02.01.2020 18:45;68;157;W
02.01.2020 19:00;69;160;W
02.01.2020 19:15;68;158;W
02.01.2020 19:30;68;158;W
02.01.2020 19:45;67;158;W
02.01.2020 20:00;66;159;W
02.01.2020 20:15;67;160;W
02.01.2020 20:30;65;159;W
02.01.2020 20:45;64;160;W
02.01.2020 21:00;64;159;W
02.01.2020 21:15;62;159;W
02.01.2020 21:30;61;160;W
02.01.2020 21:45;62;160;W
02.01.2020 22:00;61;160;W
02.01.2020 22:15;62;158;W
02.01.2020 22:30;61;159;W
02.01.2020 22:45;60;158;W
02.01.2020 23:00;60;156;W
02.01.2020 23:15;59;154;W
02.01.2020 23:30;59;152;W
02.01.2020 23:45;57;151;W
03.01.2020 00:00;55;151;W
03.01.2020 00:15;53;148;W
03.01.2020 00:30;51;147;W
03.01.2020 00:45;51;146;W
03.01.2020 01:00;51;144;W
03.01.2020 01:15;49;145;W
03.01.2020 01:30;49;142;W
03.01.2020 01:45;48;142;W
03.01.2020 02:00;48;144;W
03.01.2020 02:15;50;142;W
03.01.2020 02:30;49;142;W
03.01.2020 02:45;50;140;W
03.01.2020 03:00;48;141;W
03.01.2020 03:15;48;141;W
03.01.2020 03:30;48;143;W
03.01.2020 03:45;49;143;W
03.01.2020 04:00;51;143;W
03.01.2020 04:15;54;143;W
03.01.2020 04:30;56;143;W
03.01.2020 04:45;57;144;W
03.01.2020 05:00;58;145;W
03.01.2020 05:15;61;150;W
03.01.2020 05:30;62;152;W
03.01.2020 05:45;65;155;W
03.01.2020 06:00;65;157;W
03.01.2020 06:15;67;161;W
03.01.2020 06:30;68;163;W
03.01.2020 06:45;69;162;W
03.01.2020 07:00;68;164;W
03.01.2020 07:15;68;165;W
03.01.2020 07:30;67;167;W
03.01.2020 07:45;66;167;W
03.01.2020 08:00;66;168;W
03.01.2020 08:15;67;166;W
03.01.2020 08:30;70;158;W
03.01.2020 08:45;65;157;W
03.01.2020 09:00;63;155;W
03.01.2020 09:15;62;155;W
03.01.2020 09:30;60;155;W
03.01.2020 09:45;61;155;W
03.01.2020 10:00;61;156;W
03.01.2020 10:15;62;154;W
03.01.2020 10:30;63;153;W
03.01.2020 10:45;64;152;W
03.01.2020 11:00;68;151;W
03.01.2020 11:15;69;151;W
03.01.2020 11:30;68;150;W
03.01.2020 11:45;68;151;W
03.01.2020 12:00;68;149;W
03.01.2020 12:15;68;150;W
03.01.2020 12:30;69;150;W
03.01.2020 12:45;68;150;W
03.01.2020 13:00;67;150;W
03.01.2020 13:15;65;151;W
03.01.2020 13:30;65;150;W
03.01.2020 13:45;66;149;W
03.01.2020 14:00;68;149;W
03.01.2020 14:15;68;148;W
03.01.2020 14:30;69;147;W
03.01.2020 14:45;68;147;W
03.01.2020 15:00;67;145;W
03.01.2020 15:15;66;149;W
03.01.2020 15:30;65;147;W
03.01.2020 15:45;65;148;W
03.01.2020 16:00;67;153;W
03.01.2020 16:15;73;156;W
03.01.2020 16:30;71;158;W
03.01.2020 16:45;71;157;W
03.01.2020 17:00;73;158;W
03.01.2020 17:15;72;156;W
03.01.2020 17:30;72;155;W
03.01.2020 17:45;73;155;W
03.01.2020 18:00;72;156;W
03.01.2020 18:15;71;154;W
03.01.2020 18:30;71;154;W
03.01.2020 18:45;71;154;W
03.01.2020 19:00;71;154;W
03.01.2020 19:15;71;153;W
03.01.2020 19:30;71;154;W
03.01.2020 19:45;70;155;W
03.01.2020 20:00;69;154;W
03.01.2020 20:15;69;152;W
03.01.2020 20:30;70;155;W
03.01.2020 20:45;69;153;W
03.01.2020 21:00;69;152;W
03.01.2020 21:15;66;150;W
03.01.2020 21:30;65;152;W
03.01.2020 21:45;63;151;W
03.01.2020 22:00;62;151;W
03.01.2020 22:15;64;150;W
03.01.2020 22:30;65;149;W
03.01.2020 22:45;64;149;W
03.01.2020 23:00;63;149;W
03.01.2020 23:15;57;145;W
03.01.2020 23:30;56;142;W
03.01.2020 23:45;54;143;W
04.01.2020 00:00;53;144;W
04.01.2020 00:15;50;140;W
04.01.2020 00:30;49;140;W
04.01.2020 00:45;48;140;W
04.01.2020 01:00;49;139;W
04.01.2020 01:15;47;140;W
04.01.2020 01:30;47;139;W
04.01.2020 01:45;46;140;W
04.01.2020 02:00;46;135;W
04.01.2020 02:15;47;136;W
04.01.2020 02:30;47;138;W
04.01.2020 02:45;47;137;W
04.01.2020 03:00;47;135;W
04.01.2020 03:15;50;136;W
04.01.2020 03:30;53;136;W
04.01.2020 03:45;54;137;W
04.01.2020 04:00;55;135;W
04.01.2020 04:15;59;138;W
04.01.2020 04:30;60;138;W
04.01.2020 04:45;61;140;W
04.01.2020 05:00;61;138;W
04.01.2020 05:15;64;145;W
04.01.2020 05:30;65;146;W
04.01.2020 05:45;67;146;W
04.01.2020 06:00;69;149;W
04.01.2020 06:15;72;150;W
04.01.2020 06:30;73;150;W
04.01.2020 06:45;72;150;W
04.01.2020 07:00;70;151;W
04.01.2020 07:15;70;151;W
04.01.2020 07:30;69;151;W
04.01.2020 07:45;69;154;W
04.01.2020 08:00;69;155;W
04.01.2020 08:15;70;151;W
04.01.2020 08:30;70;147;W
04.01.2020 08:45;64;147;W
04.01.2020 09:00;64;145;W
04.01.2020 09:15;63;142;W
04.01.2020 09:30;63;142;W
04.01.2020 09:45;62;142;W
04.01.2020 10:00;63;142;W
04.01.2020 10:15;64;142;W
04.01.2020 10:30;64;141;W
04.01.2020 10:45;62;140;W
04.01.2020 11:00;61;139;W
04.01.2020 11:15;62;142;W
04.01.2020 11:30;63;140;W
04.01.2020 11:45;64;141;W
04.01.2020 12:00;64;140;W
04.01.2020 12:15;64;141;W
04.01.2020 12:30;66;143;W
04.01.2020 12:45;65;141;W
04.01.2020 13:00;62;142;W
04.01.2020 13:15;62;142;W
04.01.2020 13:30;62;141;W
04.01.2020 13:45;62;143;W
04.01.2020 14:00;62;142;W
04.01.2020 14:15;62;139;W
04.01.2020 14:30;65;142;W
04.01.2020 14:45;65;143;W
04.01.2020 15:00;65;151;W
04.01.2020 15:15;65;148;W
04.01.2020 15:30;64;145;W
04.01.2020 15:45;63;146;W
04.01.2020 16:00;63;145;W
04.01.2020 16:15;62;146;W
04.01.2020 16:30;66;149;W
04.01.2020 16:45;67;151;W
04.01.2020 17:00;67;152;W
04.01.2020 17:15;68;151;W
04.01.2020 17:30;69;154;W
04.01.2020 17:45;69;152;W
04.01.2020 18:00;68;151;W
04.01.2020 18:15;68;152;W
04.01.2020 18:30;68;154;W
04.01.2020 18:45;68;154;W
04.01.2020 19:00;68;154;W
04.01.2020 19:15;69;153;W
04.01.2020 19:30;68;152;W
04.01.2020 19:45;69;152;W
04.01.2020 20:00;68;154;W
04.01.2020 20:15;67;154;W
04.01.2020 20:30;67;155;W
04.01.2020 20:45;68;154;W
04.01.2020 21:00;68;154;W
04.01.2020 21:15;67;154;W
04.01.2020 21:30;66;152;W
04.01.2020 21:45;65;152;W
04.01.2020 22:00;66;152;W
04.01.2020 22:15;60;152;W
04.01.2020 22:30;59;152;W
04.01.2020 22:45;58;153;W
04.01.2020 23:00;58;152;W
04.01.2020 23:15;56;150;W
04.01.2020 23:30;56;148;W
04.01.2020 23:45;53;148;W
05.01.2020 00:00;51;148;W
05.01.2020 00:15;50;148;W
05.01.2020 00:30;49;146;W
05.01.2020 00:45;49;144;W
05.01.2020 01:00;49;144;W
05.01.2020 01:15;47;145;W
05.01.2020 01:30;47;145;W
05.01.2020 01:45;46;145;W
05.01.2020 02:00;46;146;W
05.01.2020 02:15;47;146;W
05.01.2020 02:30;47;145;W
05.01.2020 02:45;47;145;W
05.01.2020 03:00;48;146;W
05.01.2020 03:15;49;146;W
05.01.2020 03:30;50;146;W
05.01.2020 03:45;50;144;W
05.01.2020 04:00;51;143;W
05.01.2020 04:15;54;144;W
05.01.2020 04:30;55;144;W
05.01.2020 04:45;57;144;W
05.01.2020 05:00;59;145;W
05.01.2020 05:15;61;150;W
05.01.2020 05:30;60;150;W
05.01.2020 05:45;62;151;W
05.01.2020 06:00;63;155;W
05.01.2020 06:15;65;155;W
05.01.2020 06:30;65;156;W
05.01.2020 06:45;65;155;W
05.01.2020 07:00;64;156;W
05.01.2020 07:15;64;156;W
05.01.2020 07:30;65;156;W
05.01.2020 07:45;67;158;W
05.01.2020 08:00;66;155;W
05.01.2020 08:15;64;153;W
05.01.2020 08:30;59;146;W
05.01.2020 08:45;58;140;W
05.01.2020 09:00;58;141;W
05.01.2020 09:15;58;139;W
05.01.2020 09:30;57;141;W
05.01.2020 09:45;55;137;W
05.01.2020 10:00;57;137;W
05.01.2020 10:15;55;137;W
05.01.2020 10:30;53;135;W
05.01.2020 10:45;53;136;W
05.01.2020 11:00;52;136;W
05.01.2020 11:15;53;134;W
05.01.2020 11:30;54;135;W
05.01.2020 11:45;55;135;W
05.01.2020 12:00;55;134;W
05.01.2020 12:15;57;134;W
05.01.2020 12:30;57;134;W
05.01.2020 12:45;57;133;W
05.01.2020 13:00;55;134;W
05.01.2020 13:15;55;132;W
05.01.2020 13:30;55;133;W
05.01.2020 13:45;55;132;W
05.01.2020 14:00;55;132;W
05.01.2020 14:15;55;132;W
05.01.2020 14:30;55;131;W
05.01.2020 14:45;56;131;W
05.01.2020 15:00;56;133;W
05.01.2020 15:15;55;133;W
05.01.2020 15:30;54;134;W
05.01.2020 15:45;56;136;W
05.01.2020 16:00;55;138;W
05.01.2020 16:15;56;140;W
05.01.2020 16:30;63;147;W
05.01.2020 16:45;67;153;W
05.01.2020 17:00;67;152;W
05.01.2020 17:15;66;153;W
05.01.2020 17:30;65;153;W
05.01.2020 17:45;67;153;W
05.01.2020 18:00;66;155;W
05.01.2020 18:15;66;155;W
05.01.2020 18:30;67;156;W
05.01.2020 18:45;68;153;W
05.01.2020 19:00;67;155;W
05.01.2020 19:15;66;154;W
05.01.2020 19:30;66;153;W
05.01.2020 19:45;66;152;W
05.01.2020 20:00;67;153;W
05.01.2020 20:15;65;152;W
05.01.2020 20:30;66;153;W
05.01.2020 20:45;67;152;W
05.01.2020 21:00;65;152;W
05.01.2020 21:15;63;153;W
05.01.2020 21:30;61;151;W
05.01.2020 21:45;61;152;W
05.01.2020 22:00;62;152;W
05.01.2020 22:15;61;150;W
05.01.2020 22:30;61;147;W
05.01.2020 22:45;60;148;W
05.01.2020 23:00;60;148;W
05.01.2020 23:15;57;145;W
05.01.2020 23:30;57;147;W
05.01.2020 23:45;54;145;W
06.01.2020 00:00;52;145;W
06.01.2020 00:15;50;143;W
06.01.2020 00:30;50;141;W
06.01.2020 00:45;50;142;W
06.01.2020 01:00;50;140;W
06.01.2020 01:15;49;141;W
06.01.2020 01:30;49;141;W
06.01.2020 01:45;48;140;W
06.01.2020 02:00;48;139;W
06.01.2020 02:15;48;141;W
06.01.2020 02:30;48;139;W
06.01.2020 02:45;48;139;W
06.01.2020 03:00;48;140;W
06.01.2020 03:15;50;141;W
06.01.2020 03:30;54;139;W
06.01.2020 03:45;55;140;W
06.01.2020 04:00;56;140;W
06.01.2020 04:15;59;142;W
06.01.2020 04:30;61;141;W
06.01.2020 04:45;61;143;W
06.01.2020 05:00;62;143;W
06.01.2020 05:15;66;147;W
06.01.2020 05:30;66;150;W
06.01.2020 05:45;69;153;W
06.01.2020 06:00;70;156;W
06.01.2020 06:15;72;160;W
06.01.2020 06:30;72;162;W
06.01.2020 06:45;72;161;W
06.01.2020 07:00;71;163;W
06.01.2020 07:15;70;164;W
06.01.2020 07:30;72;166;W
06.01.2020 07:45;71;167;W
06.01.2020 08:00;73;170;W
06.01.2020 08:15;72;169;W
06.01.2020 08:30;68;168;W
06.01.2020 08:45;67;162;W
06.01.2020 09:00;65;160;W
06.01.2020 09:15;66;159;W
06.01.2020 09:30;67;156;W
06.01.2020 09:45;67;154;W
06.01.2020 10:00;68;155;W
06.01.2020 10:15;66;154;W
06.01.2020 10:30;63;155;W
06.01.2020 10:45;60;156;W
06.01.2020 11:00;61;153;W
06.01.2020 11:15;60;150;W
06.01.2020 11:30;61;152;W
06.01.2020 11:45;62;156;W
06.01.2020 12:00;61;156;W
06.01.2020 12:15;62;155;W
06.01.2020 12:30;63;156;W
06.01.2020 12:45;63;153;W
06.01.2020 13:00;61;151;W
06.01.2020 13:15;60;153;W
06.01.2020 13:30;60;153;W
06.01.2020 13:45;61;152;W
06.01.2020 14:00;61;146;W
06.01.2020 14:15;60;146;W
06.01.2020 14:30;60;150;W
06.01.2020 14:45;60;148;W
06.01.2020 15:00;59;146;W
06.01.2020 15:15;61;151;W
06.01.2020 15:30;62;154;W
06.01.2020 15:45;63;150;W
06.01.2020 16:00;64;156;W
06.01.2020 16:15;64;152;W
06.01.2020 16:30;70;161;W
06.01.2020 16:45;72;163;W
06.01.2020 17:00;72;162;W
06.01.2020 17:15;71;160;W
06.01.2020 17:30;72;159;W
06.01.2020 17:45;72;159;W
06.01.2020 18:00;71;159;W
06.01.2020 18:15;71;159;W
06.01.2020 18:30;71;159;W
06.01.2020 18:45;72;158;W
06.01.2020 19:00;71;157;W
06.01.2020 19:15;73;158;W
06.01.2020 19:30;72;158;W
06.01.2020 19:45;71;157;W
06.01.2020 20:00;71;157;W
06.01.2020 20:15;71;156;W
06.01.2020 20:30;69;157;W
06.01.2020 20:45;69;157;W
06.01.2020 21:00;68;154;W
06.01.2020 21:15;67;155;W
06.01.2020 21:30;65;155;W
06.01.2020 21:45;65;156;W
06.01.2020 22:00;65;153;W
06.01.2020 22:15;65;152;W
06.01.2020 22:30;66;151;W
06.01.2020 22:45;65;150;W
06.01.2020 23:00;64;152;W
06.01.2020 23:15;57;148;W
06.01.2020 23:30;57;148;W
06.01.2020 23:45;54;152;W
07.01.2020 00:00;52;151;W
07.01.2020 00:15;49;148;W
07.01.2020 00:30;49;147;W
07.01.2020 00:45;49;146;W
07.01.2020 01:00;49;148;W
07.01.2020 01:15;48;148;W
07.01.2020 01:30;47;147;W
07.01.2020 01:45;47;148;W
07.01.2020 02:00;45;147;W
07.01.2020 02:15;47;148;W
07.01.2020 02:30;46;149;W
07.01.2020 02:45;47;148;W
07.01.2020 03:00;47;147;W
07.01.2020 03:15;48;149;W
07.01.2020 03:30;50;149;W
07.01.2020 03:45;51;150;W
07.01.2020 04:00;52;150;W
07.01.2020 04:15;55;150;W
07.01.2020 04:30;58;151;W
07.01.2020 04:45;57;154;W
07.01.2020 05:00;58;152;W
07.01.2020 05:15;60;158;W
07.01.2020 05:30;60;159;W
07.01.2020 05:45;63;162;W
07.01.2020 06:00;65;162;W
07.01.2020 06:15;68;166;W
07.01.2020 06:30;68;168;W
07.01.2020 06:45;68;168;W
07.01.2020 07:00;67;173;W
07.01.2020 07:15;66;175;W
07.01.2020 07:30;68;175;W
07.01.2020 07:45;68;176;W
07.01.2020 08:00;67;177;W
07.01.2020 08:15;67;176;W
07.01.2020 08:30;62;169;W
07.01.2020 08:45;62;168;W
07.01.2020 09:00;61;168;W
07.01.2020 09:15;61;167;W
07.01.2020 09:30;60;164;W
07.01.2020 09:45;60;164;W
07.01.2020 10:00;61;165;W
07.01.2020 10:15;60;167;W
07.01.2020 10:30;59;165;W
07.01.2020 10:45;59;164;W
07.01.2020 11:00;58;163;W
07.01.2020 11:15;60;161;W
07.01.2020 11:30;60;165;W
07.01.2020 11:45;61;165;W
07.01.2020 12:00;62;167;W
07.01.2020 12:15;64;164;W
07.01.2020 12:30;64;166;W
07.01.2020 12:45;63;169;W
07.01.2020 13:00;62;167;W
07.01.2020 13:15;61;166;W
07.01.2020 13:30;61;163;W
07.01.2020 13:45;61;162;W
07.01.2020 14:00;61;165;W
07.01.2020 14:15;62;165;W
07.01.2020 14:30;61;161;W
07.01.2020 14:45;61;160;W
07.01.2020 15:00;61;162;W
07.01.2020 15:15;60;163;W
07.01.2020 15:30;59;162;W
07.01.2020 15:45;58;162;W
07.01.2020 16:00;58;164;W
07.01.2020 16:15;59;165;W
07.01.2020 16:30;65;169;W
07.01.2020 16:45;66;169;W
07.01.2020 17:00;65;167;W
07.01.2020 17:15;66;168;W
07.01.2020 17:30;65;167;W
07.01.2020 17:45;64;165;W
07.01.2020 18:00;64;164;W
07.01.2020 18:15;67;163;W
07.01.2020 18:30;70;162;W
07.01.2020 18:45;69;162;W
07.01.2020 19:00;70;162;W
07.01.2020 19:15;69;160;W
07.01.2020 19:30;68;159;W
07.01.2020 19:45;69;160;W
07.01.2020 20:00;68;159;W
07.01.2020 20:15;69;160;W
07.01.2020 20:30;68;159;W
07.01.2020 20:45;69;158;W
07.01.2020 21:00;68;158;W
07.01.2020 21:15;65;158;W
07.01.2020 21:30;64;157;W
07.01.2020 21:45;65;157;W
07.01.2020 22:00;64;158;W
07.01.2020 22:15;64;159;W
07.01.2020 22:30;64;158;W
07.01.2020 22:45;63;160;W
07.01.2020 23:00;63;161;W
07.01.2020 23:15;56;155;W
07.01.2020 23:30;56;154;W
07.01.2020 23:45;53;155;W
08.01.2020 00:00;51;153;W
08.01.2020 00:15;48;150;W
08.01.2020 00:30;48;151;W
08.01.2020 00:45;48;151;W
08.01.2020 01:00;48;152;W
08.01.2020 01:15;46;149;W
08.01.2020 01:30;46;147;W
08.01.2020 01:45;45;145;W
08.01.2020 02:00;46;145;W
08.01.2020 02:15;47;145;W
08.01.2020 02:30;47;146;W
08.01.2020 02:45;47;144;W
08.01.2020 03:00;46;145;W
08.01.2020 03:15;51;145;W
08.01.2020 03:30;56;144;W
08.01.2020 03:45;55;146;W
08.01.2020 04:00;55;146;W
08.01.2020 04:15;59;148;W
08.01.2020 04:30;61;146;W
08.01.2020 04:45;61;149;W
08.01.2020 05:00;63;150;W
08.01.2020 05:15;66;156;W
08.01.2020 05:30;68;159;W
08.01.2020 05:45;70;159;W
08.01.2020 06:00;69;162;W
08.01.2020 06:15;73;167;W
08.01.2020 06:30;73;168;W
08.01.2020 06:45;72;167;W
08.01.2020 07:00;71;169;W
08.01.2020 07:15;71;170;W
08.01.2020 07:30;73;171;W
08.01.2020 07:45;73;176;W
08.01.2020 08:00;73;176;W
08.01.2020 08:15;73;174;W
08.01.2020 08:30;73;170;W
08.01.2020 08:45;72;169;W
08.01.2020 09:00;66;168;W
08.01.2020 09:15;66;166;W
08.01.2020 09:30;65;167;W
08.01.2020 09:45;65;167;W
08.01.2020 10:00;65;167;W
08.01.2020 10:15;65;166;W
08.01.2020 10:30;66;165;W
08.01.2020 10:45;67;166;W
08.01.2020 11:00;66;163;W
08.01.2020 11:15;66;165;W
08.01.2020 11:30;66;163;W
08.01.2020 11:45;65;163;W
08.01.2020 12:00;65;164;W
08.01.2020 12:15;67;163;W
08.01.2020 12:30;67;162;W
08.01.2020 12:45;66;164;W
08.01.2020 13:00;64;162;W
08.01.2020 13:15;63;163;W
08.01.2020 13:30;63;163;W
08.01.2020 13:45;64;162;W
08.01.2020 14:00;64;162;W
08.01.2020 14:15;64;158;W
08.01.2020 14:30;63;158;W
08.01.2020 14:45;62;158;W
08.01.2020 15:00;62;158;W
08.01.2020 15:15;62;159;W
08.01.2020 15:30;62;158;W
08.01.2020 15:45;62;159;W
08.01.2020 16:00;64;161;W
08.01.2020 16:15;69;163;W
08.01.2020 16:30;69;164;W
08.01.2020 16:45;70;164;W
08.01.2020 17:00;70;165;W
08.01.2020 17:15;70;156;W
08.01.2020 17:30;69;153;W
08.01.2020 17:45;70;154;W
08.01.2020 18:00;71;155;W
08.01.2020 18:15;73;162;W
08.01.2020 18:30;72;160;W
08.01.2020 18:45;70;160;W
08.01.2020 19:00;70;160;W
08.01.2020 19:15;71;157;W
08.01.2020 19:30;69;158;W
08.01.2020 19:45;69;157;W
08.01.2020 20:00;69;157;W
08.01.2020 20:15;69;159;W
08.01.2020 20:30;69;157;W
08.01.2020 20:45;68;156;W
08.01.2020 21:00;66;155;W
08.01.2020 21:15;64;154;W
08.01.2020 21:30;63;155;W
08.01.2020 21:45;63;155;W
08.01.2020 22:00;64;152;W
08.01.2020 22:15;64;152;W
08.01.2020 22:30;64;152;W
08.01.2020 22:45;63;152;W
08.01.2020 23:00;62;152;W
08.01.2020 23:15;55;148;W
08.01.2020 23:30;55;145;W
08.01.2020 23:45;51;146;W
09.01.2020 00:00;50;144;W
09.01.2020 00:15;48;140;W
09.01.2020 00:30;47;139;W
09.01.2020 00:45;47;139;W
09.01.2020 01:00;46;139;W
09.01.2020 01:15;45;138;W
09.01.2020 01:30;45;139;W
09.01.2020 01:45;44;139;W
09.01.2020 02:00;44;139;W
09.01.2020 02:15;45;141;W
09.01.2020 02:30;44;139;W
09.01.2020 02:45;44;140;W
09.01.2020 03:00;45;140;W
09.01.2020 03:15;49;141;W
09.01.2020 03:30;52;140;W
09.01.2020 03:45;54;140;W
09.01.2020 04:00;55;141;W
09.01.2020 04:15;59;143;W
09.01.2020 04:30;61;143;W
09.01.2020 04:45;61;144;W
09.01.2020 05:00;62;145;W
09.01.2020 05:15;65;150;W
09.01.2020 05:30;65;152;W
09.01.2020 05:45;67;154;W
09.01.2020 06:00;69;156;W
09.01.2020 06:15;71;161;W
09.01.2020 06:30;72;162;W
09.01.2020 06:45;71;161;W
09.01.2020 07:00;70;164;W
09.01.2020 07:15;72;166;W
09.01.2020 07:30;71;168;W
09.01.2020 07:45;70;168;W
09.01.2020 08:00;68;170;W
09.01.2020 08:15;67;168;W
09.01.2020 08:30;67;164;W
09.01.2020 08:45;62;163;W
09.01.2020 09:00;63;160;W
09.01.2020 09:15;62;161;W
09.01.2020 09:30;64;162;W
09.01.2020 09:45;64;162;W
09.01.2020 10:00;63;162;W
09.01.2020 10:15;61;161;W
09.01.2020 10:30;61;161;W
09.01.2020 10:45;59;161;W
09.01.2020 11:00;58;158;W
09.01.2020 11:15;67;161;W
09.01.2020 11:30;68;162;W
09.01.2020 11:45;67;160;W
09.01.2020 12:00;66;162;W
09.01.2020 12:15;62;158;W
09.01.2020 12:30;63;159;W
09.01.2020 12:45;62;159;W
09.01.2020 13:00;61;160;W
09.01.2020 13:15;61;159;W
09.01.2020 13:30;61;159;W
09.01.2020 13:45;62;159;W
09.01.2020 14:00;63;156;W
09.01.2020 14:15;62;158;W
09.01.2020 14:30;60;157;W
09.01.2020 14:45;60;157;W
09.01.2020 15:00;60;158;W
09.01.2020 15:15;60;158;W
09.01.2020 15:30;59;157;W
09.01.2020 15:45;59;159;W
09.01.2020 16:00;61;166;W
09.01.2020 16:15;65;171;W
09.01.2020 16:30;68;171;W
09.01.2020 16:45;68;172;W
09.01.2020 17:00;66;171;W
09.01.2020 17:15;66;168;W
09.01.2020 17:30;67;167;W
09.01.2020 17:45;67;166;W
09.01.2020 18:00;67;164;W
09.01.2020 18:15;67;166;W
09.01.2020 18:30;67;167;W
09.01.2020 18:45;66;168;W
09.01.2020 19:00;65;167;W
09.01.2020 19:15;65;164;W
09.01.2020 19:30;66;166;W
09.01.2020 19:45;65;166;W
09.01.2020 20:00;64;164;W
09.01.2020 20:15;64;166;W
09.01.2020 20:30;64;164;W
09.01.2020 20:45;63;166;W
09.01.2020 21:00;61;163;W
09.01.2020 21:15;59;163;W
09.01.2020 21:30;58;162;W
09.01.2020 21:45;59;160;W
09.01.2020 22:00;60;157;W
09.01.2020 22:15;59;156;W
09.01.2020 22:30;60;155;W
09.01.2020 22:45;59;149;W
09.01.2020 23:00;58;148;W
09.01.2020 23:15;55;145;W
09.01.2020 23:30;55;143;W
09.01.2020 23:45;53;144;W
10.01.2020 00:00;50;143;W
10.01.2020 00:15;48;139;W
10.01.2020 00:30;48;139;W
10.01.2020 00:45;47;138;W
10.01.2020 01:00;46;138;W
10.01.2020 01:15;45;139;W
10.01.2020 01:30;45;137;W
10.01.2020 01:45;44;139;W
10.01.2020 02:00;44;137;W
10.01.2020 02:15;46;137;W
10.01.2020 02:30;46;137;W
10.01.2020 02:45;46;137;W
10.01.2020 03:00;46;139;W
10.01.2020 03:15;48;139;W
10.01.2020 03:30;50;139;W
10.01.2020 03:45;52;139;W
10.01.2020 04:00;53;140;W
10.01.2020 04:15;56;141;W
10.01.2020 04:30;57;141;W
10.01.2020 04:45;58;142;W